GEFSCGP_con_probscp_294.txt.gz
Probability
0 0 0 0 0 0 0 0 0 0 0 0 0 0 0 1 0 0 1 4 4 2 0 0 0 0 0 0 1 2 3 4 4 4 4 5 7 10 12 12 12 11 10 10
0 0 0 0 0 0 0 0 0 0 0 0 0 0 0 1 0 1 2 3 4 2 1 1 0 0 0 1 1 2 3 4 5 6 6 6 8 10 11 11 11 10 10 10
0 0 0 0 0 0 0 0 0 0 0 0 0 0 0 0 0 1 2 3 2 1 2 2 1 0 1 2 2 2 4 5 6 6 6 6 7 8 8 9 9 9 9 9
0 0 0 0 0 0 0 0 0 0 0 0 0 0 0 0 0 1 3 3 2 1 1 2 2 1 1 3 3 4 5 7 6 6 5 5 6 6 6 7 8 8 8 8
0 0 0 0 0 0 0 0 0 0 0 0 0 0 0 0 0 1 3 4 2 0 0 1 2 2 3 4 5 6 7 8 7 7 7 7 6 6 6 8 9 8 6 5
0 0 0 0 0 0 0 0 0 0 0 0 0 0 0 0 0 0 2 3 2 1 1 1 2 4 5 7 8 9 10 10 10 10 11 11 9 8 9 10 10 8 6 4
0 0 0 0 0 0 0 0 0 0 0 0 0 0 0 0 0 0 0 1 2 2 2 4 5 7 8 9 10 11 13 14 14 14 15 14 12 10 11 11 10 9 6 4
0 0 0 0 0 0 0 0 0 0 0 0 1 0 0 0 1 1 0 1 2 3 4 6 8 10 11 11 11 13 16 18 17 16 16 15 13 11 11 11 10 9 8 6
0 0 0 0 0 0 0 0 0 0 0 0 0 0 1 1 2 1 1 2 5 5 5 7 9 10 11 11 11 13 16 18 17 15 15 14 13 11 11 10 10 9 9 8
0 0 0 0 0 0 0 0 0 0 0 0 0 0 2 3 3 2 3 6 9 9 7 7 9 10 9 9 10 11 13 15 16 15 14 13 12 11 11 10 9 9 10 11
0 0 0 0 0 0 0 0 0 0 0 0 0 1 3 5 5 4 6 9 11 10 8 9 10 11 10 8 8 9 10 13 14 14 13 11 11 12 12 12 11 9 9 11
0 0 0 0 0 0 0 0 0 0 0 0 0 1 4 6 5 5 7 11 13 12 11 11 12 13 12 10 10 10 10 11 12 13 12 12 13 13 13 13 12 9 9 9
0 0 0 0 0 0 0 0 0 0 0 0 0 2 5 7 5 4 8 13 16 17 16 14 15 16 15 14 13 13 11 10 11 14 15 16 17 16 15 14 12 11 10 10
0 0 0 0 0 0 0 0 0 0 0 0 0 1 5 6 4 5 9 14 18 21 20 19 19 19 19 20 19 17 14 12 14 17 19 20 19 19 17 16 14 13 13 13
0 0 0 0 0 0 0 0 0 0 0 0 0 2 4 5 6 8 11 14 18 21 22 23 23 23 24 27 27 24 20 18 19 20 20 21 20 19 19 20 20 19 18 18
0 0 0 0 0 0 0 0 0 0 0 0 1 3 4 4 6 10 13 15 17 20 24 25 26 27 28 31 33 32 28 25 24 23 23 23 22 21 22 24 25 26 26 25
0 0 0 0 0 0 0 0 0 0 0 1 3 4 4 5 6 10 13 15 16 19 24 26 27 27 28 29 33 35 33 30 28 26 26 26 25 24 25 26 29 31 32 31
0 0 0 0 0 0 0 0 0 0 1 2 4 6 7 7 8 10 11 12 14 17 20 23 24 24 23 25 30 34 34 33 31 29 29 29 28 27 27 28 30 33 35 36
0 0 0 0 0 0 0 0 0 0 1 2 4 7 9 10 10 11 12 12 13 14 15 17 19 20 22 25 30 33 34 35 35 33 32 33 32 31 31 32 34 36 38 39
1 1 0 0 0 0 0 1 1 1 1 3 5 8 11 12 12 13 14 15 15 14 13 13 15 19 22 26 30 31 32 34 35 33 33 34 36 37 37 38 39 39 40 40
0 0 0 0 0 0 1 2 3 3 4 5 8 10 13 14 15 16 17 18 20 19 15 13 15 18 20 24 29 31 31 32 31 29 30 33 35 36 38 40 41 40 40 40
0 0 0 0 1 2 4 5 6 7 8 8 9 12 14 16 17 18 19 21 23 21 17 16 18 20 19 20 27 33 34 33 30 29 30 32 34 34 35 37 38 38 38 37
1 1 2 2 2 4 6 7 7 8 9 10 11 13 14 16 17 17 18 21 21 18 16 17 21 24 22 21 27 34 36 35 33 33 33 33 33 33 33 34 35 35 34 32
2 3 4 5 4 4 5 6 7 8 10 12 13 14 14 15 16 16 17 18 18 16 16 18 22 25 25 23 26 32 35 37 37 35 35 34 33 33 33 33 32 31 29 27
3 4 5 5 4 3 4 5 6 8 10 12 14 14 13 15 16 16 17 18 18 18 18 20 23 26 27 26 26 29 34 37 38 37 35 34 32 32 32 31 28 26 23 21
3 4 4 4 4 3 4 4 6 8 9 10 13 13 13 15 16 17 19 20 19 20 21 23 24 26 28 28 28 29 32 36 39 39 37 33 31 30 30 29 25 21 19 16

GEFSCGP_con_probscp_300.txt.gz
Probability
0 0 0 0 0 0 0 0 0 0 0 0 0 1 3 5 4 3 2 5 7 9 10 7 4 5 7 9 10 8 6 8 9 9 7 5 5 7 8 8 8 8 7 7
0 0 0 0 0 0 0 0 0 0 0 0 0 1 2 4 4 3 2 4 8 10 11 9 7 7 9 11 11 9 8 9 10 10 8 7 8 9 9 9 10 9 8 8
0 0 0 0 0 0 0 0 0 0 1 0 0 1 2 3 4 4 2 3 7 10 11 10 10 10 11 14 14 11 11 11 12 11 10 9 11 11 10 10 12 11 9 9
0 0 0 0 0 0 0 0 0 0 0 0 0 1 4 5 5 5 3 4 7 10 11 11 12 12 13 15 15 14 15 16 14 14 12 12 12 11 10 13 15 14 10 9
0 0 0 0 0 0 0 0 0 0 0 0 0 1 4 8 7 6 6 7 10 12 13 15 15 15 14 14 14 18 21 21 18 15 14 14 13 12 12 16 19 16 11 10
0 0 0 0 0 0 0 0 0 0 0 0 0 0 4 9 9 7 9 12 14 14 15 18 20 20 18 16 17 22 27 26 22 18 17 17 15 14 15 18 20 18 14 13
0 0 0 0 0 0 0 0 1 0 0 0 0 1 4 7 8 7 8 13 16 16 17 20 23 25 24 22 23 29 34 31 25 21 21 21 20 18 19 19 19 18 18 17
0 0 0 0 0 0 0 0 0 0 0 0 1 2 4 5 4 4 5 10 16 17 17 21 24 24 26 27 30 36 40 35 27 24 25 28 26 23 21 20 18 18 18 19
0 0 0 0 0 0 0 0 0 0 0 0 1 3 4 4 2 2 4 10 17 18 18 21 23 23 25 29 34 40 42 38 32 28 28 30 28 25 23 22 20 19 19 19
0 0 0 0 0 0 0 0 0 0 0 0 1 3 4 4 3 5 8 13 18 21 21 23 23 22 23 28 34 39 42 40 36 31 28 27 26 26 25 25 25 24 23 21
0 0 0 0 0 0 0 0 0 1 1 0 1 3 4 4 4 8 13 16 20 23 24 24 24 23 23 26 32 37 39 39 36 32 28 27 26 26 28 29 30 30 29 29
0 0 0 0 0 0 0 0 0 1 1 0 1 4 5 5 7 11 15 20 23 25 24 24 25 26 28 29 33 35 36 36 36 35 33 32 30 29 29 32 34 35 35 35
0 0 0 0 0 0 0 0 0 1 1 0 2 5 8 10 13 14 17 24 29 30 28 27 29 32 35 37 37 38 37 37 38 40 39 38 35 32 32 34 38 39 37 35
0 0 0 0 0 0 0 0 0 0 0 1 4 8 11 15 18 18 19 25 32 35 35 36 38 38 39 41 42 41 41 41 42 44 44 44 41 38 36 37 39 39 37 34
0 0 0 0 0 0 0 0 0 0 1 3 6 10 12 17 20 21 21 26 33 39 42 44 46 43 42 43 43 43 43 45 46 47 48 48 46 43 39 38 39 39 37 34
1 1 0 0 0 0 0 0 1 1 3 5 8 9 12 18 23 25 27 29 34 39 41 44 46 46 45 45 46 46 47 50 52 50 50 49 46 42 39 38 39 39 38 37
3 4 2 0 0 0 1 1 2 4 5 6 7 7 11 18 25 29 32 35 37 39 41 42 43 45 46 46 49 52 54 56 57 53 50 47 43 40 39 39 39 40 39 39
6 6 3 0 0 1 2 2 3 4 6 7 6 6 10 17 24 30 35 40 42 42 43 44 43 45 45 45 49 55 57 57 58 56 53 48 45 42 40 40 41 41 41 40
5 5 3 0 0 1 2 1 1 2 5 7 8 11 14 19 22 27 34 41 44 43 43 44 45 47 49 48 49 53 54 54 56 58 58 53 50 48 46 44 44 43 42 41
2 3 1 0 0 1 1 0 0 2 6 9 13 18 23 23 24 27 32 37 38 38 39 41 44 48 51 52 52 51 50 51 54 57 57 55 54 53 52 52 50 46 44 43
3 3 3 1 0 0 0 0 3 9 14 15 17 23 27 28 28 30 31 30 30 32 34 36 40 44 48 51 52 50 47 48 50 50 51 53 53 51 51 54 54 51 46 43
4 5 5 2 1 3 4 6 12 20 22 20 19 23 26 28 29 30 30 27 26 29 30 31 35 41 44 47 49 47 45 47 47 46 46 50 50 45 44 50 54 52 47 43
3 5 6 5 5 8 11 14 19 23 22 19 19 20 23 24 26 28 30 30 30 29 29 29 33 38 42 44 45 45 45 46 46 46 46 48 46 41 42 48 50 48 44 42
3 5 8 10 10 11 14 15 16 17 17 17 17 18 19 20 23 28 31 32 32 30 29 30 32 35 38 42 43 44 44 45 46 46 46 45 43 42 44 47 46 42 40 39
5 6 10 13 13 12 12 13 12 13 14 14 14 15 16 16 18 24 29 31 30 29 30 31 32 32 34 37 39 41 43 45 44 44 43 41 40 40 42 43 40 35 32 32
5 7 10 12 13 13 12 13 12 12 11 11 12 13 14 14 15 18 25 29 27 27 29 30 30 29 31 33 36 40 43 45 43 42 41 39 38 37 37 37 34 28 25 25

GEFSCGP_con_probscp_306.txt.gz
Probability
0 0 0 0 0 0 0 1 1 1 0 0 1 4 6 6 8 8 7 6 4 4 4 4 3 3 3 2 2 3 3 3 3 4 4 4 4 5 5 4 3 4 5 6
0 0 0 0 0 0 0 0 0 0 0 0 0 2 3 5 8 8 7 6 4 4 6 5 4 4 4 4 4 3 3 3 4 4 5 4 4 5 5 4 4 4 4 5
0 0 0 0 0 0 0 0 0 0 0 0 0 1 2 4 6 7 7 5 4 5 7 6 5 5 6 6 5 4 4 4 4 4 5 6 6 6 6 6 5 5 4 4
0 0 0 0 0 0 0 0 0 0 0 0 0 1 2 3 3 5 6 5 4 5 6 6 7 8 8 7 7 6 6 6 5 5 6 6 6 6 6 6 5 4 4 4
0 0 0 0 0 0 0 0 0 0 0 0 0 1 2 2 2 4 5 5 5 5 4 6 8 10 10 9 9 9 8 6 6 6 7 7 6 5 4 4 4 4 4 4
0 0 0 0 0 0 0 0 0 0 0 0 0 0 1 1 1 2 4 6 7 6 6 6 8 10 12 12 13 13 11 9 8 8 9 8 6 4 3 5 5 4 4 4
0 0 0 0 0 0 0 0 0 0 0 0 0 0 0 0 0 1 4 8 11 10 8 7 9 11 12 14 16 17 16 13 10 9 10 9 7 5 5 7 7 6 4 4
0 0 0 0 0 0 0 0 0 0 0 0 0 1 0 0 0 0 3 9 13 14 11 9 10 11 13 15 17 19 18 15 12 10 9 9 8 7 7 9 10 9 6 4
0 0 0 0 0 0 0 0 0 0 0 0 0 0 0 0 0 1 3 7 13 15 14 13 11 11 12 13 15 17 19 17 14 11 9 8 7 7 8 11 13 11 6 4
0 0 0 0 0 0 0 0 0 0 0 0 0 0 0 1 2 3 5 8 13 16 17 15 12 10 10 11 12 16 19 19 16 12 9 7 8 8 9 11 12 10 6 4
0 0 0 0 0 0 0 0 0 0 0 0 0 0 1 3 3 4 7 11 16 18 18 16 12 9 10 11 13 17 19 20 18 15 11 10 10 11 11 11 11 9 8 7
0 0 0 0 0 0 0 0 0 0 0 0 0 1 2 3 3 4 8 15 18 19 18 14 11 10 10 13 17 21 23 23 21 18 15 13 13 14 15 15 13 11 10 9
0 0 0 0 0 0 0 0 0 0 0 0 1 3 3 2 2 4 9 15 17 16 14 12 12 13 14 16 20 23 26 26 23 20 17 16 16 16 16 16 16 14 12 10
0 0 0 0 0 0 0 0 0 0 0 1 3 5 5 4 4 6 11 15 17 14 11 11 13 15 15 17 20 23 25 25 25 23 20 18 17 17 15 14 15 14 13 13
0 0 0 0 0 0 0 0 0 1 2 3 5 7 6 6 8 10 14 18 20 15 11 10 13 14 15 18 20 22 24 25 26 25 22 19 18 17 14 13 13 13 15 17
0 0 0 0 0 0 0 0 1 2 4 5 7 6 6 7 10 14 17 20 21 18 14 13 14 16 17 19 22 24 26 27 27 26 22 20 19 18 17 15 14 15 17 20
0 0 0 0 0 0 0 0 1 3 4 5 6 5 6 10 13 16 19 20 20 20 19 18 17 19 20 20 22 25 27 28 28 26 23 22 23 22 20 19 18 17 19 20
0 0 0 0 0 0 0 1 1 2 3 5 5 6 8 13 16 17 18 19 19 21 21 19 18 19 19 19 22 24 26 29 30 27 26 26 26 24 22 21 19 18 18 19
0 0 0 0 0 0 1 1 2 2 3 4 4 5 9 13 16 16 15 15 15 16 17 15 15 16 16 16 20 24 26 28 31 31 30 28 26 25 23 21 20 19 19 19
0 0 0 0 0 1 1 1 2 2 1 1 2 4 8 12 13 12 10 9 9 10 11 11 13 15 14 14 17 22 25 27 31 34 32 28 25 23 22 21 20 19 19 18
0 0 0 0 0 0 0 0 1 1 1 0 1 4 6 8 8 7 6 6 5 5 6 8 12 15 16 15 16 19 22 26 30 31 28 26 24 22 20 20 19 18 17 16
0 0 0 0 0 0 0 0 0 0 0 0 1 4 4 4 4 4 5 6 5 4 5 7 10 14 17 17 15 16 19 23 26 26 24 24 24 23 21 21 20 19 17 16
0 0 1 1 1 1 2 2 1 1 0 0 1 2 3 3 3 4 5 5 5 5 5 6 8 11 15 15 12 12 15 18 20 22 23 24 25 25 25 24 23 22 20 18
0 1 2 3 4 4 4 5 4 3 2 2 2 3 5 5 4 4 4 5 6 6 6 7 7 8 9 9 8 9 12 15 17 20 23 23 24 26 25 24 24 22 21 21
0 1 3 4 5 6 6 6 7 6 5 5 5 6 8 8 6 5 5 5 7 8 9 8 7 5 4 4 5 8 10 13 15 18 21 23 23 23 22 20 19 18 17 18
1 2 3 4 4 5 6 7 7 7 6 6 6 8 11 11 9 6 5 6 8 10 11 10 8 5 3 3 5 7 10 12 14 15 19 23 22 21 19 16 14 12 11 13

GEFSCGP_con_probscp_312.txt.gz
Probability
0 0 0 0 0 0 0 0 0 0 0 0 0 0 0 0 0 0 0 0 0 0 0 0 1 1 1 2 3 2 1 1 2 5 6 6 5 4 4 4 3 2 1 0
0 0 0 0 0 0 0 0 0 0 0 0 0 0 0 0 0 0 0 0 0 0 0 0 1 2 2 3 3 3 2 1 2 3 5 5 5 5 4 3 2 1 1 1
0 0 0 0 0 0 0 0 0 0 0 0 1 0 0 0 0 0 0 0 0 0 0 0 1 2 3 3 3 3 2 2 1 1 3 3 3 3 2 1 1 1 2 3
0 0 0 0 0 0 0 0 0 0 0 0 0 0 0 0 0 0 1 1 0 0 0 0 0 1 2 1 1 1 1 1 1 0 1 1 1 1 0 0 0 1 1 2
0 0 0 0 0 0 0 0 0 0 0 0 0 0 0 0 0 0 1 1 1 0 0 0 0 1 1 0 0 0 0 0 0 0 0 0 0 0 0 0 0 0 0 1
0 0 0 0 0 0 0 0 0 0 0 0 0 0 0 0 0 0 1 1 1 1 1 0 1 1 0 0 0 0 0 0 0 0 0 0 0 0 0 0 0 0 0 0
0 0 0 0 0 0 0 0 0 0 0 0 0 0 0 0 0 0 0 1 2 2 2 2 2 2 1 1 1 0 0 0 0 0 0 0 0 0 0 0 0 0 0 0
0 0 0 0 0 0 0 0 0 0 0 0 0 0 0 0 0 0 0 1 3 4 4 4 4 3 2 2 1 0 0 0 1 1 1 2 1 1 1 1 0 0 0 0
0 0 0 0 0 0 0 0 0 0 0 0 0 0 0 0 1 1 0 1 3 4 4 5 5 3 2 2 2 1 0 0 1 2 3 4 4 4 3 3 3 3 2 1
0 0 0 0 0 0 0 0 0 0 0 0 0 0 0 0 1 1 0 1 3 4 4 4 5 3 3 3 3 3 2 1 1 2 4 5 6 6 7 7 7 6 5 4
0 0 0 0 0 0 0 0 0 0 0 0 0 0 0 0 1 1 0 1 2 3 4 6 6 4 3 3 4 4 4 3 2 3 5 6 7 7 8 9 9 9 8 7
0 0 0 0 0 0 0 0 0 0 0 0 0 0 0 0 0 1 1 2 3 3 5 8 8 5 3 3 3 4 4 4 4 5 7 8 8 8 8 9 10 9 9 8
0 0 0 0 0 0 0 0 0 0 0 0 0 0 0 0 1 3 4 4 3 3 4 7 8 5 3 3 4 3 3 3 4 6 9 10 10 9 8 9 9 9 9 8
0 0 0 0 0 0 0 0 0 0 0 0 0 1 0 1 2 4 5 5 4 3 3 4 5 5 4 4 4 3 2 3 4 6 8 10 10 10 9 8 8 9 9 9
0 0 0 0 0 0 0 0 0 0 0 0 0 0 0 1 2 3 4 4 3 3 3 4 4 4 3 3 3 3 3 5 6 7 8 9 10 10 9 8 8 9 10 10
0 0 0 0 0 0 0 0 0 1 1 1 0 1 1 0 1 1 2 3 3 3 4 4 4 4 3 1 2 4 5 7 10 11 12 12 11 10 9 9 9 10 10 11
0 0 0 0 0 0 0 0 1 2 3 2 1 1 1 0 0 0 2 3 4 4 4 4 4 3 2 1 2 4 6 9 12 14 15 15 13 12 11 12 12 12 11 10
0 0 0 0 0 0 0 0 1 3 3 1 0 1 1 0 1 1 2 3 4 4 4 4 4 3 2 2 3 5 6 8 10 12 14 14 15 14 13 14 14 13 11 10
0 0 0 0 0 0 0 1 2 3 3 1 0 0 1 1 2 2 2 2 3 4 5 5 5 4 4 5 6 7 7 6 7 9 9 10 12 13 13 13 14 14 13 11
0 0 0 0 0 0 0 1 2 4 3 1 0 1 2 2 2 2 2 2 2 4 5 6 6 6 6 6 7 8 8 6 6 7 7 7 8 10 11 12 13 14 13 12
0 0 0 0 0 0 0 1 1 2 2 0 0 1 2 2 1 1 1 1 2 4 5 5 6 6 6 6 6 6 6 5 6 6 5 4 5 7 9 11 12 12 13 12
0 0 0 0 0 0 0 0 0 0 0 0 0 0 1 1 1 1 1 0 2 3 4 4 5 4 3 3 3 3 3 3 4 4 3 2 3 4 6 8 9 11 12 12
0 0 0 0 0 0 0 0 0 0 0 0 0 0 0 0 1 1 1 1 2 3 3 3 2 1 1 1 1 1 1 1 2 2 1 1 1 2 4 6 8 10 12 13
0 0 0 0 0 0 0 0 0 0 0 0 0 0 0 0 1 1 1 2 2 1 1 1 1 0 0 0 0 0 0 0 1 1 1 1 1 2 3 5 6 8 12 14
0 0 0 0 0 0 0 0 0 0 0 1 1 1 1 1 2 3 3 3 3 2 1 1 1 1 0 0 0 0 0 0 1 2 3 3 3 3 4 3 3 5 9 11
0 0 0 0 0 0 0 0 0 0 1 2 2 1 2 2 3 4 4 3 3 3 2 2 2 2 1 0 0 0 0 1 2 3 6 5 4 4 3 2 1 3 5 6

GEFSCGP_con_probscp_318.txt.gz
Probability
0 0 0 0 0 0 0 0 0 0 0 0 1 0 0 0 0 0 0 0 0 0 1 1 2 1 1 1 2 3 5 6 6 6 6 5 4 3 4 4 3 2 1 1
0 0 0 0 0 0 0 0 0 0 0 0 1 1 0 0 0 0 0 0 0 1 2 3 3 2 1 1 2 3 5 6 6 5 4 4 4 4 4 4 4 4 3 2
0 0 0 0 0 0 0 0 0 0 0 0 1 1 1 0 0 0 0 0 0 1 3 4 4 3 1 1 1 2 3 4 3 3 4 4 5 5 5 5 5 4 4 2
0 0 0 0 0 0 0 0 0 0 0 0 0 1 1 1 1 0 0 0 0 0 1 2 3 2 1 1 2 1 1 1 1 3 4 5 5 5 4 4 4 5 5 4
0 0 0 0 0 0 0 0 0 0 0 0 0 0 1 2 2 1 0 0 0 0 0 1 2 2 1 2 3 3 2 1 2 4 5 5 4 3 2 2 3 4 4 4
0 0 0 0 0 0 0 0 0 0 0 0 0 0 1 3 3 1 1 1 1 0 1 1 3 4 4 5 6 6 5 4 4 5 5 4 4 3 1 1 1 2 2 3
0 0 0 0 0 0 0 0 0 0 0 0 0 1 2 3 3 3 2 2 1 1 2 3 5 8 9 9 9 9 8 7 6 6 6 5 5 3 2 1 0 1 2 3
0 0 0 0 0 0 0 0 0 0 0 0 0 1 2 3 4 4 3 3 2 3 4 6 8 10 11 11 11 10 10 10 10 10 9 8 7 5 3 1 1 2 4 5
0 0 0 0 0 0 0 0 0 0 0 0 0 2 2 3 3 3 3 3 4 6 8 10 12 12 12 12 11 11 11 12 12 12 11 10 9 8 5 3 4 5 8 9
0 0 0 0 0 0 0 0 0 0 0 0 0 1 2 3 3 3 4 4 6 9 11 13 15 13 11 11 10 9 10 12 13 13 11 9 9 10 9 7 8 10 12 14
0 0 0 0 0 0 0 0 0 0 0 0 0 1 2 3 3 4 5 5 6 8 11 14 14 12 10 10 9 8 8 10 12 13 11 8 7 9 10 10 11 12 13 14
0 0 0 0 0 0 0 0 0 0 0 0 0 0 2 3 3 4 5 5 6 7 10 13 15 13 12 10 8 8 7 8 11 12 11 8 7 9 10 11 11 11 11 11
0 0 0 0 0 0 0 0 0 0 0 0 0 1 2 3 3 4 5 5 6 7 9 12 15 16 15 12 10 9 8 9 11 12 11 10 10 11 12 12 11 10 10 10
0 0 0 0 0 0 0 0 0 0 0 0 0 1 3 4 5 6 6 6 6 6 7 11 16 18 16 14 12 11 10 10 13 14 14 14 15 15 15 14 12 10 10 10
0 0 0 0 0 0 0 0 0 0 0 0 0 2 4 6 8 9 8 8 8 8 9 13 18 19 17 15 14 13 12 13 17 19 18 18 19 19 18 15 12 11 11 12
0 0 0 0 0 0 0 0 0 0 0 0 0 2 5 8 10 10 10 12 13 14 15 17 19 20 18 17 15 15 16 18 22 24 23 21 20 20 18 15 14 13 14 14
0 0 0 0 0 0 0 0 0 0 0 0 1 3 6 8 9 9 10 14 17 19 20 20 20 19 19 18 18 18 21 25 29 29 28 26 23 20 18 17 17 18 19 19
0 0 0 0 0 0 0 0 0 0 0 1 2 4 6 7 6 5 8 13 18 21 21 19 19 20 21 22 22 22 25 30 33 32 31 30 28 24 23 23 22 21 22 24
0 0 0 0 0 0 0 0 0 0 1 2 4 5 6 5 4 4 7 13 19 22 22 19 19 20 22 25 28 28 29 32 33 31 31 32 32 29 28 27 25 23 23 24
0 0 0 0 0 0 0 0 0 1 3 5 5 5 5 5 4 6 12 17 21 24 24 22 20 20 23 25 29 31 30 28 27 25 26 29 30 29 28 27 25 24 25 23
0 0 0 0 0 0 0 0 1 2 4 6 6 4 4 5 8 12 18 23 24 23 23 23 22 22 22 23 24 27 27 23 20 21 22 25 26 24 22 23 23 24 24 22
0 1 1 0 0 0 0 0 1 3 5 5 4 3 4 8 11 15 19 24 24 21 22 24 23 22 22 20 21 21 21 19 19 21 22 23 21 18 17 18 20 21 20 19
1 2 2 1 1 2 1 1 1 2 4 3 2 3 5 9 12 15 18 22 23 22 23 24 22 20 20 18 16 16 16 18 21 23 24 22 18 16 15 15 15 15 15 16
1 2 2 2 3 3 3 3 2 2 2 1 2 4 6 8 11 14 18 22 24 25 26 24 21 19 19 17 14 13 14 18 22 24 25 22 20 17 17 17 14 12 12 13
1 1 1 2 2 3 4 5 4 2 1 1 2 5 7 9 11 14 20 24 26 27 27 24 20 19 19 17 16 15 16 18 21 23 24 23 21 21 21 21 18 12 9 10
1 0 0 1 1 2 4 6 5 3 2 2 3 6 8 10 12 15 21 25 27 28 27 24 20 19 18 16 16 16 17 19 20 21 22 21 20 22 23 22 18 11 6 6

GEFSCGP_con_probscp_324.txt.gz
Probability
0 0 0 0 0 0 0 0 0 1 1 1 2 1 1 1 1 2 5 6 8 13 16 15 13 15 18 20 20 16 11 10 11 10 11 10 7 5 6 7 8 10 9 9
0 0 0 0 0 0 0 0 0 0 0 1 2 1 1 1 1 1 3 4 8 14 19 17 14 16 22 25 23 17 13 11 11 10 10 8 7 5 6 6 6 6 6 5
0 0 0 0 0 0 0 0 0 0 0 1 2 2 3 3 2 1 2 3 7 14 19 19 17 19 24 27 24 19 18 17 13 9 7 6 6 7 5 6 6 4 3 3
0 0 0 0 0 0 0 0 0 0 0 0 1 3 4 4 4 3 2 2 6 11 18 21 22 23 25 25 24 26 29 26 17 11 8 6 7 7 6 7 8 6 5 4
0 0 0 0 0 0 0 0 0 0 0 0 1 2 4 5 4 4 3 4 6 9 15 22 26 27 25 23 26 33 37 34 24 16 13 10 8 7 6 7 8 7 7 7
0 0 0 0 0 0 0 0 0 0 0 1 1 2 4 5 5 5 6 9 10 10 14 20 26 30 28 26 29 37 43 41 30 22 17 13 10 10 9 7 7 8 9 11
0 0 0 0 0 0 0 0 0 0 0 0 1 4 8 8 8 8 10 12 13 14 16 21 26 29 31 32 36 43 49 45 35 26 21 17 13 12 12 10 10 11 14 15
0 0 0 0 0 0 0 0 0 0 0 0 3 8 11 11 10 10 11 12 13 15 19 23 25 26 30 36 40 45 51 50 41 33 27 23 19 16 15 16 16 17 19 20
0 0 0 0 0 0 0 0 0 0 0 0 4 11 13 11 11 11 10 10 11 13 18 23 25 26 30 36 38 42 49 51 46 37 30 25 22 20 20 20 21 23 24 23
0 0 0 0 0 0 0 0 0 0 0 0 3 9 13 12 11 12 11 9 8 10 14 19 23 26 30 32 34 37 43 45 42 36 30 25 23 22 22 22 24 26 26 23
0 0 0 0 0 0 0 0 0 0 0 0 2 6 10 11 10 10 11 10 9 10 12 14 19 24 28 28 28 31 35 35 34 32 30 27 25 25 25 25 26 29 28 25
0 0 0 0 0 0 0 0 0 0 1 0 1 5 8 8 7 8 10 11 10 12 14 14 17 22 26 26 23 25 27 27 27 29 30 29 29 31 32 32 32 33 32 29
0 0 0 0 0 0 0 0 0 0 0 0 1 5 8 7 6 8 11 13 14 16 18 17 19 23 26 26 25 25 25 24 24 26 27 29 33 36 38 38 38 38 37 34
0 0 0 0 0 0 0 0 0 0 0 0 1 4 8 9 8 10 15 18 19 21 22 21 23 26 28 29 29 28 26 24 25 27 28 32 38 42 42 41 40 40 40 39
0 0 0 0 0 0 0 0 0 0 0 0 0 4 9 10 10 13 18 21 23 25 25 26 29 31 31 31 30 29 28 29 31 33 34 38 44 46 45 43 41 40 39 38
1 1 0 0 0 0 0 0 0 0 0 0 1 4 9 12 14 17 21 22 26 29 30 31 34 37 37 35 34 32 33 36 39 39 40 45 48 48 48 46 43 39 36 36
1 2 1 0 0 0 0 0 0 0 0 1 3 7 12 13 15 19 22 24 28 32 35 35 36 39 39 39 38 36 38 41 42 42 43 46 49 50 49 46 42 38 36 35
2 2 1 0 0 0 0 0 0 0 0 2 5 9 14 14 15 18 22 25 28 32 36 37 36 36 37 38 39 39 40 43 44 42 42 44 48 50 49 46 43 40 37 36
2 3 1 0 0 0 0 1 1 0 0 2 6 9 13 15 15 18 22 25 28 31 34 35 35 34 36 38 40 41 41 44 45 43 41 44 47 48 48 48 47 44 41 40
2 3 2 0 0 0 1 2 2 1 3 5 7 10 12 15 17 19 22 24 25 25 28 31 32 34 37 39 40 42 43 44 44 42 41 44 46 47 47 48 47 44 42 42
2 3 2 1 0 0 1 3 4 8 12 11 11 13 15 16 18 18 19 22 21 19 21 26 32 36 38 39 40 41 42 43 43 41 41 43 43 41 41 43 42 40 40 41
2 2 2 3 3 4 6 6 8 16 19 15 13 15 16 17 16 15 17 20 20 18 19 24 32 38 40 41 42 42 42 42 42 41 40 42 40 36 36 39 39 37 35 34
1 1 2 4 6 9 11 10 11 14 15 13 13 14 16 16 15 15 18 21 21 21 21 25 31 37 41 43 43 43 42 41 39 39 39 40 38 36 37 38 37 34 31 28
1 1 2 4 6 9 10 9 8 8 8 9 10 12 15 15 15 16 19 22 24 24 25 27 31 37 42 43 43 43 43 41 38 37 38 36 34 35 38 38 35 33 29 25
2 2 2 4 5 5 6 5 5 5 6 7 8 10 13 15 15 16 21 25 27 28 29 29 32 37 42 43 42 41 42 42 39 37 34 31 29 30 33 33 32 29 24 21
3 2 2 4 5 5 4 4 4 5 7 7 7 8 12 15 14 16 22 28 29 30 31 30 31 36 40 40 39 39 41 43 40 35 31 27 26 27 28 28 27 23 17 14